ITY486 LEMH-LIEE

Flight info

Callsign ITY486
Flight time 0h 49m
Altitude 34000
Route MORSS M603 ELSAG M603 ALG M732 KOVAS
Aircraft A320/M-SDE3FGHIRWY/LB1

Departure

Time 2026-04-27 13:03
Airport Menorca Airport (LEMH)

Arrival

Time 2026-04-27 13:53
Airport Cagliari Elmas Airport (LIEE)
Time Latitude Longitude Altitude Speed Heading
2026-04-27 12:57 39.86399 4.22240 290 ft 0 kts 52°
2026-04-27 12:59 39.86401 4.22247 290 ft 6 kts 67°
2026-04-27 12:59 39.86403 4.22299 291 ft 6 kts 36°
2026-04-27 12:59 39.86460 4.22317 288 ft 13 kts
2026-04-27 13:00 39.86585 4.22346 293 ft 22 kts
2026-04-27 13:00 39.86740 4.22373 291 ft 23 kts
2026-04-27 13:00 39.86893 4.22387 296 ft 19 kts 327°
2026-04-27 13:00 39.86930 4.22285 301 ft 10 kts 302°
2026-04-27 13:01 39.86974 4.22266 301 ft 8 kts
2026-04-27 13:01 39.87076 4.22277 304 ft 26 kts
2026-04-27 13:01 39.87287 4.22305 311 ft 4 kts
2026-04-27 13:02 39.87293 4.22306 312 ft 4 kts
2026-04-27 13:02 39.87353 4.22316 312 ft 13 kts 355°
2026-04-27 13:02 39.87394 4.22181 311 ft 23 kts 264°
2026-04-27 13:02 39.87260 4.22067 310 ft 29 kts 191°
2026-04-27 13:03 39.86839 4.21985 303 ft 97 kts 189°
2026-04-27 13:03 39.85966 4.21813 306 ft 154 kts 191°
2026-04-27 13:03 39.84859 4.21581 739 ft 159 kts 186°
2026-04-27 13:03 39.83761 4.21345 1446 ft 161 kts 187°
2026-04-27 13:04 39.82615 4.21079 2001 ft 177 kts 187°
2026-04-27 13:04 39.81326 4.20785 2323 ft 199 kts 188°
2026-04-27 13:04 39.79868 4.20477 2625 ft 225 kts 187°
2026-04-27 13:04 39.78239 4.20144 3024 ft 249 kts 187°
2026-04-27 13:05 39.76451 4.20026 3574 ft 264 kts 166°
2026-04-27 13:05 39.74849 4.21152 4328 ft 267 kts 130°
2026-04-27 13:05 39.74033 4.23274 5164 ft 266 kts 96°
2026-04-27 13:05 39.74294 4.25623 6001 ft 268 kts 63°
2026-04-27 13:06 39.75295 4.27671 6884 ft 270 kts 52°
2026-04-27 13:06 39.76441 4.29619 7722 ft 273 kts 51°
2026-04-27 13:06 39.77661 4.31541 8524 ft 278 kts 47°
2026-04-27 13:06 39.79046 4.33321 9355 ft 282 kts 39°
2026-04-27 13:07 39.80654 4.34821 10152 ft 287 kts 30°
2026-04-27 13:07 39.82473 4.35932 10864 ft 292 kts 19°
2026-04-27 13:07 39.84474 4.36615 11309 ft 308 kts
2026-04-27 13:07 39.86661 4.37109 11510 ft 332 kts 16°
2026-04-27 13:08 39.88750 4.38486 11753 ft 352 kts 38°
2026-04-27 13:08 39.90359 4.40927 12316 ft 362 kts 60°
2026-04-27 13:08 39.91223 4.44023 12997 ft 367 kts 75°
2026-04-27 13:08 39.91868 4.47263 13681 ft 372 kts 75°
2026-04-27 13:09 39.92512 4.50554 14315 ft 377 kts 75°
2026-04-27 13:09 39.93161 4.53874 14939 ft 380 kts 75°
2026-04-27 13:09 39.93817 4.57228 15541 ft 384 kts 75°
2026-04-27 13:09 39.94475 4.60611 16177 ft 387 kts 75°
2026-04-27 13:10 39.95142 4.64022 16801 ft 390 kts 74°
2026-04-27 13:10 39.95820 4.67460 17420 ft 393 kts 74°
2026-04-27 13:10 39.96514 4.70916 18050 ft 396 kts 74°
2026-04-27 13:10 39.97226 4.74405 18635 ft 399 kts 73°
2026-04-27 13:11 39.97950 4.77911 19181 ft 402 kts 73°
2026-04-27 13:11 39.98721 4.81431 19721 ft 405 kts 72°
2026-04-27 13:11 39.99536 4.84954 20253 ft 408 kts 71°
2026-04-27 13:11 40.00376 4.88498 20793 ft 411 kts 71°
2026-04-27 13:12 40.01224 4.92069 21311 ft 414 kts 71°
2026-04-27 13:12 40.02069 4.95672 21827 ft 417 kts 71°
2026-04-27 13:12 40.02911 4.99308 22262 ft 421 kts 71°
2026-04-27 13:12 40.03756 5.02988 22720 ft 425 kts 71°
2026-04-27 13:13 40.04600 5.06691 23180 ft 428 kts 71°
2026-04-27 13:13 40.05445 5.10431 23646 ft 431 kts 71°
2026-04-27 13:13 40.06295 5.14195 24023 ft 434 kts 71°
2026-04-27 13:13 40.07151 5.17975 24402 ft 436 kts 71°
2026-04-27 13:14 40.08014 5.21781 24777 ft 437 kts 71°
2026-04-27 13:14 40.08876 5.25595 25142 ft 439 kts 71°
2026-04-27 13:14 40.09741 5.29429 25508 ft 441 kts 71°
2026-04-27 13:14 40.10608 5.33284 25878 ft 443 kts 71°
2026-04-27 13:15 40.11478 5.37162 26178 ft 446 kts 71°
2026-04-27 13:15 40.12341 5.41014 26508 ft 449 kts 71°
2026-04-27 13:15 40.13219 5.44934 26876 ft 450 kts 71°
2026-04-27 13:15 40.14100 5.48856 27241 ft 451 kts 71°
2026-04-27 13:16 40.14984 5.52793 27576 ft 452 kts 71°
2026-04-27 13:16 40.15866 5.56749 27897 ft 454 kts 71°
2026-04-27 13:16 40.16747 5.60721 28216 ft 456 kts 71°
2026-04-27 13:16 40.17627 5.64708 28506 ft 457 kts 71°
2026-04-27 13:17 40.18511 5.68711 28793 ft 459 kts 71°
2026-04-27 13:17 40.19397 5.72725 29073 ft 461 kts 71°
2026-04-27 13:17 40.20291 5.76770 29244 ft 465 kts 71°
2026-04-27 13:17 40.21191 5.80843 29480 ft 467 kts 71°
2026-04-27 13:18 40.22094 5.84929 29724 ft 468 kts 71°
2026-04-27 13:18 40.22993 5.89022 30039 ft 468 kts 71°
2026-04-27 13:18 40.23890 5.93115 30365 ft 467 kts 71°
2026-04-27 13:18 40.24783 5.97196 30666 ft 466 kts 71°
2026-04-27 13:19 40.25667 6.01267 30946 ft 465 kts 71°
2026-04-27 13:19 40.26552 6.05343 31222 ft 465 kts 71°
2026-04-27 13:19 40.27435 6.09410 31522 ft 465 kts 72°
2026-04-27 13:19 40.28317 6.13494 31714 ft 467 kts 72°
2026-04-27 13:20 40.29202 6.17594 31937 ft 468 kts 72°
2026-04-27 13:20 40.30083 6.21701 32210 ft 468 kts 72°
2026-04-27 13:20 40.30959 6.25802 32491 ft 467 kts 72°
2026-04-27 13:20 40.31831 6.29896 32806 ft 466 kts 72°
2026-04-27 13:21 40.32699 6.33985 33103 ft 465 kts 72°
2026-04-27 13:21 40.33566 6.38066 33391 ft 465 kts 72°
2026-04-27 13:21 40.34432 6.42146 33677 ft 464 kts 72°
2026-04-27 13:21 40.35295 6.46217 33966 ft 463 kts 72°
2026-04-27 13:22 40.36157 6.50288 34128 ft 464 kts 72°
2026-04-27 13:22 40.37023 6.54369 34146 ft 464 kts 72°
2026-04-27 13:22 40.38731 6.62467 34150 ft 464 kts 73°
2026-04-27 13:23 40.40440 6.70626 34144 ft 464 kts 73°
2026-04-27 13:23 40.42146 6.78794 34152 ft 464 kts 73°
2026-04-27 13:24 40.43845 6.86969 34148 ft 464 kts 73°
2026-04-27 13:24 40.45537 6.95157 34144 ft 465 kts 73°
2026-04-27 13:25 40.47233 7.03353 34139 ft 465 kts 73°
2026-04-27 13:25 40.48924 7.11557 34140 ft 465 kts 73°
2026-04-27 13:26 40.50607 7.19770 34139 ft 465 kts 73°
2026-04-27 13:26 40.52282 7.27974 34140 ft 465 kts 73°
2026-04-27 13:27 40.53948 7.36188 34135 ft 465 kts 73°
2026-04-27 13:27 40.55609 7.44399 34132 ft 465 kts 74°
2026-04-27 13:28 40.56784 7.52750 34131 ft 466 kts 82°
2026-04-27 13:28 40.57390 7.59782 34131 ft 466 kts 83°
2026-04-27 13:29 40.58125 7.68260 34126 ft 467 kts 83°
2026-04-27 13:29 40.58852 7.76747 34123 ft 467 kts 83°
2026-04-27 13:30 40.59215 7.80985 33676 ft 466 kts 83°
2026-04-27 13:30 40.59576 7.85226 32739 ft 468 kts 83°
2026-04-27 13:30 40.59935 7.89492 31792 ft 470 kts 84°
2026-04-27 13:30 40.60291 7.93781 30846 ft 473 kts 84°
2026-04-27 13:31 40.60650 7.98095 29848 ft 476 kts 84°
2026-04-27 13:31 40.61010 8.02428 28759 ft 477 kts 84°
2026-04-27 13:31 40.61367 8.06747 28013 ft 472 kts 84°
2026-04-27 13:31 40.61718 8.11006 27307 ft 466 kts 85°
2026-04-27 13:32 40.61764 8.15234 26637 ft 459 kts 96°
2026-04-27 13:32 40.61194 8.19325 25994 ft 451 kts 108°
2026-04-27 13:32 40.60063 8.23137 25368 ft 445 kts 118°
2026-04-27 13:32 40.58448 8.26562 24759 ft 438 kts 129°
2026-04-27 13:33 40.56421 8.29499 24153 ft 431 kts 139°
2026-04-27 13:33 40.54054 8.31872 23540 ft 425 kts 148°
2026-04-27 13:33 40.51613 8.33943 22862 ft 422 kts 148°
2026-04-27 13:33 40.49158 8.36028 22208 ft 418 kts 148°
2026-04-27 13:34 40.46730 8.38092 21604 ft 414 kts 148°
2026-04-27 13:34 40.44318 8.40144 21026 ft 411 kts 148°
2026-04-27 13:34 40.41928 8.42177 20473 ft 408 kts 148°
2026-04-27 13:34 40.39560 8.44192 19947 ft 404 kts 148°
2026-04-27 13:35 40.37210 8.46192 19432 ft 401 kts 148°
2026-04-27 13:35 40.34878 8.48176 18916 ft 398 kts 148°
2026-04-27 13:35 40.32562 8.50142 18406 ft 395 kts 148°
2026-04-27 13:35 40.30258 8.52092 17840 ft 393 kts 148°
2026-04-27 13:36 40.27971 8.54025 17287 ft 390 kts 148°
2026-04-27 13:36 40.25699 8.55947 16741 ft 388 kts 148°
2026-04-27 13:36 40.23443 8.57855 16201 ft 385 kts 148°
2026-04-27 13:36 40.21198 8.59749 15675 ft 383 kts 148°
2026-04-27 13:37 40.18962 8.61633 15152 ft 381 kts 148°
2026-04-27 13:37 40.16738 8.63504 14612 ft 379 kts 148°
2026-04-27 13:37 40.14524 8.65367 14089 ft 378 kts 148°
2026-04-27 13:37 40.12326 8.67218 13583 ft 374 kts 148°
2026-04-27 13:38 40.10145 8.69050 13047 ft 371 kts 148°
2026-04-27 13:38 40.07981 8.70863 12534 ft 368 kts 148°
2026-04-27 13:38 40.05870 8.72632 12005 ft 364 kts 149°
2026-04-27 13:38 40.03747 8.74410 11500 ft 361 kts 149°
2026-04-27 13:39 40.01649 8.76170 10992 ft 357 kts 149°
2026-04-27 13:39 39.99571 8.77916 10490 ft 353 kts 148°
2026-04-27 13:39 39.97514 8.79647 10016 ft 349 kts 148°
2026-04-27 13:39 39.95518 8.81323 9882 ft 334 kts 148°
2026-04-27 13:40 39.93604 8.82924 9743 ft 320 kts 149°
2026-04-27 13:40 39.91794 8.84435 9579 ft 297 kts 149°
2026-04-27 13:40 39.90090 8.85858 9116 ft 288 kts 148°
2026-04-27 13:40 39.88512 8.87169 8770 ft 285 kts 148°
2026-04-27 13:41 39.86851 8.88546 8407 ft 282 kts 148°
2026-04-27 13:41 39.85198 8.89916 8041 ft 280 kts 148°
2026-04-27 13:41 39.83564 8.91271 7701 ft 277 kts 147°
2026-04-27 13:41 39.81942 8.92615 7331 ft 275 kts 147°
2026-04-27 13:42 39.80331 8.93950 6939 ft 274 kts 146°
2026-04-27 13:42 39.78727 8.95282 6564 ft 273 kts 147°
2026-04-27 13:42 39.77134 8.96609 6165 ft 271 kts 146°
2026-04-27 13:42 39.75560 8.97919 5788 ft 267 kts 147°
2026-04-27 13:43 39.74002 8.99213 5396 ft 264 kts 147°
2026-04-27 13:43 39.72463 9.00491 5057 ft 261 kts 147°
2026-04-27 13:43 39.70939 9.01755 4717 ft 259 kts 147°
2026-04-27 13:43 39.69429 9.03007 4324 ft 256 kts 148°
2026-04-27 13:44 39.67926 9.04253 3837 ft 257 kts 148°
2026-04-27 13:44 39.66411 9.05505 3351 ft 259 kts 149°
2026-04-27 13:44 39.64796 9.06509 2982 ft 256 kts 161°
2026-04-27 13:44 39.63077 9.07031 2612 ft 253 kts 173°
2026-04-27 13:45 39.61349 9.07131 2244 ft 250 kts 178°
2026-04-27 13:45 39.59630 9.07169 2002 ft 241 kts 178°
2026-04-27 13:45 39.57999 9.07207 1880 ft 229 kts 179°
2026-04-27 13:45 39.56447 9.07242 1771 ft 218 kts 178°
2026-04-27 13:46 39.54969 9.07264 1691 ft 209 kts 181°
2026-04-27 13:46 39.53522 9.06983 1694 ft 212 kts 194°
2026-04-27 13:46 39.52148 9.06273 1692 ft 214 kts 207°
2026-04-27 13:46 39.50921 9.05198 1695 ft 214 kts 215°
2026-04-27 13:47 39.49724 9.04064 1922 ft 212 kts 215°
2026-04-27 13:47 39.48522 9.02930 2160 ft 215 kts 214°
2026-04-27 13:47 39.47318 9.01793 2267 ft 214 kts 214°
2026-04-27 13:47 39.46109 9.00654 2294 ft 215 kts 215°
2026-04-27 13:48 39.44902 8.99519 2290 ft 215 kts 214°
2026-04-27 13:48 39.43690 8.98377 2291 ft 216 kts 214°
2026-04-27 13:48 39.42475 8.97233 2303 ft 216 kts 214°
2026-04-27 13:48 39.41259 8.96090 2293 ft 216 kts 214°
2026-04-27 13:49 39.40043 8.94951 2294 ft 216 kts 215°
2026-04-27 13:49 39.38822 8.93807 2302 ft 217 kts 213°
2026-04-27 13:49 39.37552 8.92788 2285 ft 213 kts 194°
2026-04-27 13:49 39.36120 8.92832 2056 ft 208 kts 154°
2026-04-27 13:50 39.34975 8.93951 1736 ft 207 kts 137°
2026-04-27 13:50 39.33913 8.95204 1683 ft 208 kts 138°
2026-04-27 13:50 39.32838 8.96469 1686 ft 209 kts 138°
2026-04-27 13:50 39.31792 8.97690 1564 ft 199 kts 139°
2026-04-27 13:51 39.30794 8.98853 1289 ft 187 kts 139°
2026-04-27 13:51 39.29851 8.99951 1010 ft 177 kts 139°
2026-04-27 13:51 39.28982 9.00962 821 ft 157 kts 140°
2026-04-27 13:51 39.28215 9.01859 615 ft 142 kts 143°
2026-04-27 13:52 39.27513 9.02689 410 ft 134 kts 143°
2026-04-27 13:52 39.26833 9.03483 225 ft 131 kts 143°
2026-04-27 13:52 39.26159 9.04264 68 ft 130 kts 142°
2026-04-27 13:52 39.25508 9.05003 17 ft 111 kts 137°
2026-04-27 13:53 39.24821 9.05799 17 ft 42 kts 137°
2026-04-27 13:53 39.24690 9.06051 16 ft 33 kts 81°
2026-04-27 13:53 39.24774 9.06131 16 ft 13 kts 333°
2026-04-27 13:54 39.24866 9.06022 15 ft 26 kts 317°
2026-04-27 13:54 39.25036 9.05831 15 ft 39 kts 319°
2026-04-27 13:54 39.25152 9.05862 15 ft 26 kts 87°
2026-04-27 13:54 39.25078 9.05993 15 ft 11 kts 110°
2026-04-27 13:55 39.25036 9.05962 15 ft 7 kts 229°
2026-04-27 13:55 39.25024 9.05944 16 ft 0 kts 227°